sat.trackr.live / text

‹ back to catalog

INTELSAT 25 (IS-25)

NORAD 33153 · 2008-034A

PAYLOAD ACTIVE UNKNOWN

§ Identity

Operator
Country
ITSO
Launch date
2008-07-07
Launch site
FRGUI
Launch vehicle
Mass (kg)
RCS (m²)
12.69

Purposes: comms

External: N2YO · Heavens-Above · Gunter

§ Orbital elements

Epoch: 2026-06-20T09:55:05.555136Z

Period
1,454.05 min
Inclination
2.7194°
Eccentricity
0.0003595
Mean motion
0.99033445 rev/d
Perigee alt
36,122.1 km
Apogee alt
36,152.6 km
Semi-major
42,515.5 km
B*
0.0000e+0
RAAN
80.3377°
Arg perigee
60.7301°
Mean anomaly
23.6093°
Rev number
6,572

§ Raw data

INTELSAT 25 (IS-25)1 33153U 08034A   26171.41325874 -.00000133  00000+0  00000+0 0  99972 33153   2.7194  80.3377 0003595  60.7301  23.6093  0.99033445 65727

JSON: /api/v1/satellites/33153 · /tle

For live sub-satellite position, see the globe view (requires WebGL).

§ Visibility from observer

Set your observer location to see the next 7 days of passes ≥ 10°. The values pass through the URL so the page stays shareable.

No JS? Fill the form by hand. The geolocation button needs JavaScript.